NWS Melbourne » East Central Florida Hourly Weather Roundup

MIARWRMLB 000
TTAA00 KMLB 250311
HOURLY WEATHER ROUNDUP AROUND FLORIDA
NATIONAL WEATHER SERVICE OFFICE MELBOURNE FL
1100 PM EDT FRI OCT 24 2014
  
CITY           SKY/WX    TMP DP  RH WIND       PRES   REMARKS
MELBOURNE      CLOUDY    76  58  53 NE12      29.94R                  
FORT PIERCE    CLEAR     72  58  61 N7        29.92R                  
ORLANDO INTL   PTCLDY    67  59  75 N9        29.99R                  
DAYTONA BEACH  MOCLDY    66  58  75 NW6       29.99R                  
VERO BEACH     MOCLDY    71  58  63 N5        29.93R                  
$$
...ELSEWHERE ACROSS CENTRAL FLORIDA...
  
CITY           SKY/WX    TMP DP  RH WIND       PRES   REMARKS
PATRICK AFB    CLOUDY    75  58  57 N7        29.95R                  
JFK SPACE CTR  MOCLDY    69  59  71 N5        29.96R                  
CAPE CANAVERAL PTCLDY    72  56  55 NE6       29.95R                  
ORLANDO EXEC   CLOUDY    70  59  68 N6        29.99R                  
LEESBURG       CLEAR     65  58  78 NE7       30.01R                  
SANFORD        MOCLDY    68  58  70 N12       29.98R                  
WINTER HAVEN   PTCLDY    67  57  70 N7        29.99R                  
OKEECHOBEE     CLEAR     64  59  82 MISG        N/A                   
TAMPA          PTCLDY    66  59  78 N5        29.99R                  
$$
...NORTHERN FLORIDA...
  
CITY           SKY/WX    TMP DP  RH WIND       PRES   REMARKS
DELAND         PTCLDY    64  57  77 NW7       30.00S                  
PALM COAST     PTCLDY    63  56  78 NW8       29.99F                  
ST AUGUSTINE   CLEAR     63  55  75 NW6       30.01S                  
OCALA          CLEAR     57  52  82 NE3       30.01S                  
GAINESVILLE    CLEAR     54  52  93 CALM      30.01R                  
JACKSONVILLE   CLEAR     54  53  97 CALM      30.01R                  
TALLAHASSEE    CLEAR     54  47  77 CALM      30.02R                  
$$
...ALONG THE SOUTHEAST COAST TO THE KEYS...
  
CITY           SKY/WX    TMP DP  RH WIND       PRES   REMARKS
STUART         CLOUDY    73  61  64 N8        29.92S                  
WEST PALM BCH  MOCLDY    77  66  68 N13       29.87S                  
MIAMI          MOCLDY    76  69  79 NW6       29.86S                  
KEY WEST       CLEAR     78  72  81 N12       29.88R                  
$$
...MARINE REPORTS...
  
STATION/POSITION TIME  TEMP    WIND        PRES    WAVE   SWELL
                       AIR SEA DIR/SP/G            HT/PER HT/PER/DIR
                 (UTC) (F)     (DEG/KT/KT) (MB)    (FT/S) (FT/S/D)
ST AUGUSTINE FP  0300   65     320/  8/  9 1016.5R
20NM E CAPE CANA 0300   75 80   20/ 10/ 14 1014.2R   3/11   3/ 60/11
120 E NEW SMYRNA 0300   75 82   50/ 10/ 14 1013.9R   3/10   2/ 60/10
TRIDENT PIER     0300   71 79   10/  4/  5 1013.8R
SEBASTIAN INLET  0300   75      30/ 12     1014.0S
4NM E PORT CANAV 0300      78                N/A     2/ 8
6NM NE FPR INLET 0300      80                N/A     4/11   2/ 60/11
SETTLEMENT PT GB 0300   78      50/ 16/ 18 1011.7F
$$
  
 


USA.gov is the U.S. government's official web portal to all federal, state and local government web resources and services.